Meteo Giornale » Osservazioni meteo Italia » S Maria Di Leuca

ore: 11:55 - Osservazioni Meteo S Maria Di Leuca
Lat. 39° 49' N Lon. 18° 21' E Alt. 104 metri s.l.m.

sereno Europe/Rome

30 °C

Sereno

Temp. 24 Ore

25 °C

31 °C

Ovest/Sud-Ovest

13 Km/h

Dew point 20 °C

Umidità 55 %

Visibilità  10 Km

Il sole sorge alle ore 05:38

Il sole tramonta alle ore 20:08

Data e Ora Cielo e Fenomeni T °C DP °C Um. % Pres. hPa Vis. km Vento km/h
Oggi h: 11:55 sereno Sereno 30 20 55 1006 10 O/SO 13
Oggi h: 10:55 sereno Sereno 29 19 54 1006 10 O 16.7
Oggi h: 09:55 sereno Sereno 28 19 58 1006 10 O 18.5
Oggi h: 08:55 sereno Sereno 28 20 61 1005 10 O 11.1
Oggi h: 07:55 sereno Sereno 27 18 57 1005 10 O/NO 14.8
Oggi h: 06:55 sereno Sereno 26 19 65 1005 10 NO 16.7
Oggi h: 05:55 sereno Sereno 25 19 69 1005 10 O/NO 13
Oggi h: 04:55 sereno Sereno 26 20 69 1005 10 O/NO 18.5
Oggi h: 03:55 sereno Sereno 26 20 69 1005 10 O/NO 22.2
Oggi h: 02:55 sereno Sereno 26 22 78 1006 10 O 9.3
Oggi h: 01:55 sereno Sereno 27 23 78 1006 10 O 16.7
Oggi h: 00:55 sereno Sereno 27 23 78 1006 10 O 24
Ieri h: 23:55 sereno Sereno 27 24 83 1006 10 O 18.5
Ieri h: 22:55 sereno Sereno 26 25 94 1006 10 SO 9.3
Ieri h: 21:55 sereno Sereno 27 25 88 1006 10 S/SO 14.8
Ieri h: 20:55 sereno Sereno 27 24 83 1006 10 S/SO 14.8
Ieri h: 19:55 sereno Sereno 27 24 83 1006 10 S/SO 18.5
Ieri h: 18:55 sereno Sereno 28 25 83 1007 10 SO 16.7
Ieri h: 17:55 sereno Sereno 29 24 74 1007 10 O/SO 16.7
Ieri h: 16:55 sereno Sereno 29 26 83 1008 10 S/SO 14.8
Ieri h: 15:55 sereno Sereno 30 24 70 1008 10 S/SE 11.1
Ieri h: 14:55 sereno Sereno 29 24 74 1009 10 S/SE 11.1
Ieri h: 13:55 sereno Sereno 29 24 74 1010 10 S/SE 13
Ieri h: 12:55 sereno Sereno 31 24 66 1010 10 SO 7.4